Regional Weather Roundup
Issued by NWS

Home | Current Version | Previous Version | Graphics & Text | Print | Product List | Glossary On
Versions: 1 2 3 4 5 6 7 8 9 10 11 12 13 14 15 16 17 18 19 20 21 22 23 24 25 26 27 28 29 30 31 32 33 34 35 36 37 38 39 40 41 42 43 44 45 46 47 48 49 50
000
ASUS43 KLSX 212007
RWRMO

WEATHER SUMMARY FOR MISSOURI
NATIONAL WEATHER SERVICE SPRINGFIELD MO
200 PM CST SUN JAN 21 2018

NOTE: "FAIR" INDICATES FEW OR NO CLOUDS BELOW 12,000 FEET WITH NO
       SIGNIFICANT WEATHER AND/OR OBSTRUCTIONS TO VISIBILITY.
       CURRENT SKY AND/OR WEATHER CONDITIONS ARE NOT AVAILABLE FOR
       CHILLICOTHE AND FARMINGTON.

MOZ001>031-035>038-043-044-053-054-212100-
...NORTHERN AND WESTERN MISSOURI...

CITY           SKY/WX    TMP DP  RH WIND       PRES   REMARKS
KANSAS CTY INT CLOUDY    61  50  67 S12       29.69F
KANSAS C DTWN  CLOUDY    59  50  72 CALM      29.69F
LEE`S SUMMIT   CLOUDY    61  53  75 SW10      29.71F
ST JOSEPH      CLOUDY    59  51  75 S9        29.69F
CHILLICOTHE      N/A     56  50  80 SE6       29.73F
KIRKSVILLE     CLOUDY    58  53  84 SW9       29.76F

$$
MOZ066>068-077>081-088>096-101>105-212100-
...SOUTHWEST MISSOURI...

CITY           SKY/WX    TMP DP  RH WIND       PRES   REMARKS
SPRINGFIELD    PTSUNNY   70  53  54 S24G35    29.76F
JOPLIN         PTSUNNY   72  53  51 S20G38    29.73F
BRANSON        CLOUDY    66  54  63 S13G22    29.83F

$$
MOZ032>034-039>042-045>050-055>058-069>072-212100-
...CENTRAL MISSOURI...

CITY           SKY/WX    TMP DP  RH WIND       PRES   REMARKS
COLUMBIA       CLOUDY    69  52  54 S18G29    29.76F
JEFFERSON CITY CLOUDY    70  52  52 S13G26    29.76F
ROLLA          MOSUNNY   69  53  56 S24G31    29.80F
SEDALIA        CLOUDY    69  54  58 S18G25    29.73F
WHITEMAN AFB   PTSUNNY   67  52  56 SW21G33   29.67F
WARRENSBURG    CLOUDY    64  52  63 S15G25    29.71F
OSAGE BEACH    CLOUDY    71  53  52 S10G23    29.77F

$$
MOZ051-052-059>065-212100-
...EAST CENTRAL MISSOURI...

CITY           SKY/WX    TMP DP  RH WIND       PRES   REMARKS
ST LOUIS INTL  PTSUNNY   68  54  60 S21G26    29.83F
SPIRIT OF STL  PTSUNNY   69  53  56 S10G22    29.81F
ST CHARLES     CLOUDY    70  53  54 S15G22    29.81F

$$
MOZ072>076-082>087-097>100-106>115-212100-
...SOUTH CENTRAL AND SOUTHEAST MISSOURI...

CITY           SKY/WX    TMP DP  RH WIND       PRES   REMARKS
CAPE GIRARDEAU CLOUDY    54  52  93 S17G28    29.96F
FARMINGTON     CLOUDY    57  54  89 S13       29.90F
POPLAR BLUFF   CLOUDY    57  54  89 S10       29.94F
WEST PLAINS    CLOUDY    61  56  83 S8        29.87F

$$


USA.gov is the U.S. government's official web portal to all federal, state and local government web resources and services.